This is the latest recevied weather packets stored in our database for station/object KE5OYL. If no packets are shown the sender has not sent any weather packets the latest 10 day(s).
| Time | Temp. | Humidity | Pressure | Rain* | Wind** | Luminosity | Snow |
|---|---|---|---|---|---|---|---|
| 1777382567 | 25° C | 89% | 1012.5 hPa | 0 mm | - | 25 W/m² | - |
| 1777382263 | 25° C | 89% | 1012.5 hPa | 0 mm | - | 29 W/m² | - |
| 1777381959 | 25° C | 88% | 1012.4 hPa | 0 mm | - | 29 W/m² | - |
| 1777381654 | 24.44° C | 89% | 1012.3 hPa | 0 mm | - | 39 W/m² | - |
| 1777381350 | 24.44° C | 88% | 1012.2 hPa | 0 mm | - | 57 W/m² | - |
| 1777381047 | 24.44° C | 88% | 1012.2 hPa | 0 mm | - | 53 W/m² | - |
| 1777380743 | 24.44° C | 88% | 1012.1 hPa | 0 mm | - | 59 W/m² | - |
| 1777380440 | 24.44° C | 88% | 1012 hPa | 0 mm | - | 41 W/m² | - |
| 1777380136 | 24.44° C | 88% | 1012 hPa | 0 mm | - | 36 W/m² | - |
| 1777379832 | 24.44° C | 88% | 1011.6 hPa | 0 mm | - | 25 W/m² | - |
| 1777379528 | 24.44° C | 88% | 1011.8 hPa | 0 mm | - | 19 W/m² | - |
| 1777379217 | 24.44° C | 88% | 1011.6 hPa | 0 mm | - | 16 W/m² | - |
| 1777378913 | 24.44° C | 88% | 1011.8 hPa | 0 mm | - | 18 W/m² | - |
| 1777378609 | 24.44° C | 88% | 1011.8 hPa | 0 mm | - | 8 W/m² | - |
| 1777378305 | 24.44° C | 88% | 1011.5 hPa | 0 mm | - | 6 W/m² | - |
| 1777378004 | 24.44° C | 88% | 1011.5 hPa | 0 mm | - | 8 W/m² | - |
| 1777377704 | 24.44° C | 88% | 1011.8 hPa | 0 mm | - | 8 W/m² | - |
| 1777377399 | 24.44° C | 88% | 1011.3 hPa | 0 mm | - | 4 W/m² | - |
| 1777377096 | 24.44° C | 88% | 1011.5 hPa | 0 mm | - | 3 W/m² | - |
| 1777376793 | 24.44° C | 88% | 1011.8 hPa | 0 mm | - | 2 W/m² | - |
| 1777376490 | 24.44° C | 88% | 1011.8 hPa | 0 mm | - | 1 W/m² | - |
| 1777376186 | 24.44° C | 88% | 1011.3 hPa | 0 mm | - | 0 W/m² | - |
| 1777375881 | 24.44° C | 87% | 1011.4 hPa | 0 mm | - | 0 W/m² | - |
| 1777375575 | 25° C | 87% | 1011.3 hPa | 0 mm | - | 0 W/m² | - |
| 1777375271 | 25° C | 87% | 1011.1 hPa | 0 mm | - | 0 W/m² | - |
* Rain latest hour (hover to see other rain measurements)
** Current wind speed in m/s (hover to see current wind gust speed)